sat.trackr.live / text

‹ back to catalog

ASTRA 2E

NORAD 39285 · 2013-056A

PAYLOAD ACTIVE UNKNOWN

§ Identity

Operator
Country
SES
Launch date
2013-09-29
Launch site
TYMSC
Launch vehicle
Mass (kg)
RCS (m²)
7.80

Purposes: comms

External: N2YO · Heavens-Above · Gunter

§ Orbital elements

Epoch: 2026-09-20T03:22:12.332928Z

Period
1,436.05 min
Inclination
0.0972°
Eccentricity
0.0002381
Mean motion
1.00274840 rev/d
Perigee alt
35,775.7 km
Apogee alt
35,795.8 km
Semi-major
42,163.9 km
B*
0.0000e+0
RAAN
302.4461°
Arg perigee
242.3034°
Mean anomaly
253.3596°
Rev number
4,737

§ Raw data

ASTRA 2E1 39285U 13056A   26263.14042052  .00000146  00000+0  00000+0 0  99982 39285   0.0972 302.4461 0002381 242.3034 253.3596  1.00274840 47379

JSON: /api/v1/satellites/39285 · /tle

For live sub-satellite position, see the globe view (requires WebGL).

§ Visibility from observer

Set your observer location to see the next 7 days of passes ≥ 10°. The values pass through the URL so the page stays shareable.

No JS? Fill the form by hand. The geolocation button needs JavaScript.